FW7254 Weather Reports


Display with metric or nautical units.
time (UTC)temp
F
wind
direction
speed
MPH
gust
MPH
rain 1hr
in
rain 24hr
in
rain mn
in
humidity
%
barometer
mb
20230130041816 51 110 1.0 0.0 0.00 0.00 0.00 37 1006.6
20230130040342 51 107 1.0 0.0 0.00 0.00 0.00 41 1006.7
20230130034828 50 108 1.0 0.0 0.00 0.00 0.00 43 1007.1
20230130033316 49 106 1.0 0.0 0.00 0.00 0.00 49 1007.5
20230130031822 48 107 0.0 0.0 0.00 0.00 0.00 47 1008.0
20230130030325 48 118 0.0 0.0 0.00 0.00 0.00 45 1008.5
20230130024828 47 126 0.0 0.0 0.00 0.00 0.00 46 1008.7
20230130023316 46 126 0.0 0.0 0.00 0.00 0.00 47 1009.1
20230130021822 46 109 0.0 0.0 0.00 0.00 0.00 49 1009.5
20230130020328 45 114 0.0 0.0 0.00 0.00 0.00 50 1010.0
20230130014834 44 114 0.0 0.0 0.00 0.00 0.00 52 1010.4
20230130013316 43 114 0.0 0.0 0.00 0.00 0.00 54 1010.6
20230130011822 41 114 0.0 0.0 0.00 0.00 0.00 58 1010.8
20230130010315 40 114 0.0 0.0 0.00 0.00 0.00 59 1011.0
20230130004842 40 114 0.0 0.0 0.00 0.00 0.00 61 1011.4
20230130003329 39 114 0.0 0.0 0.00 0.00 0.00 59 1011.6
20230130001817 39 114 0.0 0.0 0.00 0.00 0.00 59 1011.6
20230130000324 38 114 0.0 0.0 0.00 0.00 0.00 60 1011.6
20230129234825 37 114 0.0 0.0 0.00 0.00 0.00 61 1011.7
20230129233336 35 114 0.0 0.0 0.00 0.00 0.00 66 1011.8
20230129231814 33 114 0.0 0.0 0.00 0.00 0.00 72 1011.7
20230129230323 32 114 0.0 0.0 0.00 0.00 0.00 74 1011.6
20230129224827 31 114 0.0 0.0 0.00 0.00 0.00 75 1011.6
20230129223315 30 114 0.0 0.0 0.00 0.00 0.00 75 1011.7
20230129221822 30 114 0.0 0.0 0.00 0.00 0.00 74 1011.3
20230129220329 30 114 0.0 0.0 0.00 0.00 0.00 74 1011.1
20230129214835 30 114 0.0 0.0 0.00 0.00 0.00 75 1011.1
20230129213316 30 114 0.0 0.0 0.00 0.00 0.00 73 1010.9
20230129211826 31 114 0.0 0.0 0.00 0.00 0.00 73 1010.8
20230129210337 31 114 0.0 0.0 0.00 0.00 0.00 74 1010.6
20230129204836 31 114 0.0 0.0 0.00 0.00 0.00 74 1010.5
20230129203321 30 114 0.0 0.0 0.00 0.00 0.00 75 1010.4
20230129201827 30 114 0.0 0.0 0.00 0.00 0.00 75 1010.4
20230129200337 30 114 0.0 0.0 0.00 0.00 0.00 74 1010.3
20230129194822 30 114 0.0 0.0 0.00 0.00 0.00 75 1010.3
20230129193331 30 114 0.0 0.0 0.00 0.00 0.00 75 1010.3
20230129191816 31 114 0.0 0.0 0.00 0.00 0.00 75 1010.4
20230129190344 31 114 0.0 0.0 0.00 0.00 0.00 74 1009.9
20230129184849 31 114 0.0 0.0 0.00 0.00 0.00 73 1010.2
20230129183335 32 114 0.0 0.0 0.00 0.00 0.00 71 1010.1
20230129181815 32 114 0.0 0.0 0.00 0.00 0.00 72 1010.2
20230129180323 32 114 0.0 0.0 0.00 0.00 0.00 71 1010.1
20230129174828 32 114 1.0 0.0 0.00 0.00 0.00 72 1010.3
20230129173319 32 114 0.0 0.0 0.00 0.00 0.00 73 1010.3
20230129171823 32 114 0.0 0.0 0.00 0.00 0.00 73 1010.4
20230129170352 33 114 0.0 0.0 0.00 0.00 0.00 73 1010.4
20230129164812 32 114 0.0 0.0 0.00 0.00 0.00 76 1010.3
20230129163319 32 114 0.0 0.0 0.00 0.00 0.00 76 1010.4
20230129161825 33 114 0.0 0.0 0.00 0.00 0.00 76 1010.3
20230129160318 33 114 0.0 0.0 0.00 0.00 0.00 75 1010.4
20230129154818 34 114 0.0 0.0 0.00 0.00 0.00 74 1010.3
20230129153332 34 114 0.0 0.0 0.00 0.00 0.00 73 1010.3
20230129151830 34 114 0.0 0.0 0.00 0.00 0.00 72 1010.5
20230129150340 34 114 0.0 0.0 0.00 0.00 0.00 72 1010.5
20230129144825 34 114 0.0 0.0 0.00 0.00 0.00 72 1010.7
20230129143331 34 114 0.0 0.0 0.00 0.00 0.00 72 1010.6
20230129141838 35 114 0.0 0.0 0.00 0.00 0.00 72 1010.6
20230129140322 35 114 0.0 0.0 0.00 0.00 0.00 72 1010.8
20230129134848 35 114 0.0 0.0 0.00 0.00 0.00 72 1010.9
20230129133312 35 114 0.0 0.0 0.00 0.00 0.00 72 1011.1
20230129131816 36 114 0.0 0.0 0.00 0.00 0.00 71 1011.1
20230129130350 37 114 0.0 0.0 0.00 0.00 0.00 70 1011.2
20230129124827 37 114 0.0 0.0 0.00 0.00 0.00 69 1011.3
20230129123336 38 114 0.0 0.0 0.00 0.00 0.00 68 1011.2
20230129121818 38 114 0.0 0.0 0.00 0.00 0.00 69 1011.5
20230129120326 38 114 0.0 0.0 0.00 0.00 0.00 67 1011.4
20230129114832 39 114 0.0 0.0 0.00 0.00 0.00 65 1011.7
20230129113318 39 114 0.0 0.0 0.00 0.00 0.00 64 1011.7
20230129111845 40 114 0.0 0.0 0.00 0.00 0.00 64 1012.0
20230129110313 41 114 0.0 0.0 0.00 0.00 0.00 62 1012.0
20230129104815 41 114 0.0 0.0 0.00 0.00 0.00 61 1012.2
20230129103323 41 114 0.0 0.0 0.00 0.00 0.00 60 1012.1
20230129101825 41 113 0.0 0.0 0.00 0.00 0.00 59 1012.0
20230129100313 41 114 0.0 0.0 0.00 0.00 0.00 58 1012.1
20230129094822 41 114 0.0 0.0 0.00 0.00 0.00 58 1012.1
20230129093324 42 114 0.0 0.0 0.00 0.00 0.00 57 1012.1
20230129091812 42 114 0.0 0.0 0.00 0.00 0.00 56 1011.9
20230129090340 42 114 0.0 0.0 0.00 0.00 0.00 55 1011.9
20230129084827 42 114 1.0 0.0 0.00 0.00 0.00 53 1011.7
20230129083314 43 114 1.0 0.0 0.00 0.00 0.00 52 1011.7
20230129081824 43 114 1.0 0.0 0.00 0.00 0.00 50 1011.5
20230129080316 44 111 2.0 0.0 0.00 0.00 0.00 49 1011.2
20230129074819 44 110 1.0 0.0 0.00 0.00 0.00 48 1011.2
20230129073328 45 109 2.0 0.0 0.00 0.00 0.00 51 1011.2
20230129071836 46 162 0.0 0.0 0.00 0.00 0.00 50 1011.0
20230129070322 46 165 0.0 0.0 0.00 0.00 0.00 50 1010.9
20230129064828 46 106 1.0 0.0 0.00 0.00 0.00 50 1010.8
20230129063316 46 128 2.0 0.0 0.00 0.00 0.00 49 1010.8
20230129061823 45 106 3.0 0.0 0.00 0.00 0.00 46 1010.8
20230129060332 46 117 0.0 0.0 0.00 0.00 0.00 44 1010.7
20230129054836 46 111 2.0 0.0 0.00 0.00 0.00 44 1010.6
20230129053315 45 109 1.0 0.0 0.00 0.00 0.00 44 1010.7
20230129051820 45 113 3.0 0.0 0.00 0.00 0.00 44 1010.6
20230129050328 45 113 2.0 0.0 0.00 0.00 0.00 45 1010.5
20230129044828 46 146 2.0 0.0 0.00 0.00 0.00 45 1010.6
20230129043317 46 121 1.0 0.0 0.00 0.00 0.00 44 1010.7